Weather History for Sayun, Yemen

Change the Weather History Date:

Wednesday, February 20, 2013

  Actual Average Record
Temperature  
Mean Temperature 74 °F -  
Max Temperature 98 °F - - ()
Min Temperature 51 °F - - ()
Cooling Degree Days 10    
Growing Degree Days 24 (Base 50)    
Moisture  
Dew Point 35 °F    
Average Humidity 27    
Maximum Humidity 50    
Minimum Humidity 6    
Precipitation  
Precipitation 0.00 in - - ()
Sea Level Pressure  
Sea Level Pressure 29.94 in    
Wind  
Wind Speed 2 mph ()    
Max Wind Speed 7 mph    
Max Gust Speed -    
T = Trace of Precipitation, MM = Missing Value Source: Averaged Metar Reports

Daily Weather History Graph

Daily Weather History Graph

Search for Another Location

Airport:

Trip Planner

Search our weather history database for the weather conditions in past years. The results will help you decide how hot, cold, wet, or windy it might be!

Date:

Astronomy

Feb. 20, 2013 Rise Set
Actual Time 6:07 AM AST 5:49 PM AST
Civil Twilight 5:45 AM AST 6:11 PM AST
Nautical Twilight 5:20 AM AST 6:36 PM AST
Astronomical Twilight 4:55 AM AST 7:01 PM AST
Moon 1:17 PM AST (2/20) 1:43 AM AST (2/20)
Length of Visible Light 12h 25m
Length of Day
11h 41m
Waxing Gibbous, 73% of the Moon is Illuminated
Feb 20
Waxing Gibbous
Feb 25
Full
Mar 5
Last Quarter
Mar 11
New
Mar 19
First Quarter

Hourly Weather History & Observations

Time (AST) Temp. Dew Point Humidity Pressure Visibility Wind Dir Wind Speed Gust Speed Precip Events Conditions
12:00 AM 64.4 °F 35.6 °F 34% 29.95 in - Calm Calm - N/A   Clear
1:00 AM 60.8 °F 37.4 °F 42% 29.95 in - Calm Calm - N/A   Clear
2:00 AM 59.0 °F 37.4 °F 45% 29.92 in - Calm Calm - N/A   Clear
3:00 AM 62.6 °F 37.4 °F 39% 29.92 in - Calm Calm - N/A   Clear
4:00 AM 59.0 °F 35.6 °F 42% 29.92 in - Calm Calm - N/A   Clear
5:00 AM 55.4 °F 33.8 °F 44% 29.95 in - Calm Calm - N/A   Clear
7:00 AM 51.8 °F 33.8 °F 50% 30.01 in - Calm Calm - N/A   Clear
8:00 AM 64.4 °F 35.6 °F 34% 30.01 in - Calm Calm - N/A   Clear
9:00 AM 71.6 °F 42.8 °F 35% 30.04 in - Calm Calm - N/A   Clear
10:00 AM 77.0 °F 42.8 °F 29% 30.04 in - NNE 6.9 mph - N/A   Clear
11:00 AM 82.4 °F 46.4 °F 28% 29.98 in - ENE 5.8 mph - N/A   Clear
12:00 PM 87.8 °F 32.0 °F 14% 29.95 in - ENE 4.6 mph - N/A   Clear
1:00 PM 91.4 °F 32.0 °F 12% 29.92 in - ENE 4.6 mph - N/A   Clear
2:00 PM 96.8 °F 28.4 °F 9% 29.89 in - ENE 5.8 mph - N/A   Clear
3:00 PM 98.6 °F 23.0 °F 7% 29.89 in - ENE 4.6 mph - N/A   Clear
4:00 PM 98.6 °F 21.2 °F 6% 29.86 in - NNE 3.5 mph - N/A   Clear
5:00 PM 96.8 °F 23.0 °F 7% 29.86 in - NE 3.5 mph - N/A   Clear
6:00 PM 91.4 °F 30.2 °F 11% 29.86 in - East 4.6 mph - N/A   Clear
7:00 PM 84.2 °F 28.4 °F 13% 29.89 in - NNE 4.6 mph - N/A   Clear
8:00 PM 82.4 °F 42.8 °F 25% 29.92 in - SE 6.9 mph - N/A   Clear
9:00 PM 80.6 °F 44.6 °F 28% 29.95 in - SSE 5.8 mph - N/A   Clear
10:00 PM 73.4 °F 39.2 °F 29% 29.98 in - NNE 5.8 mph - N/A   Clear
11:00 PM 69.8 °F 39.2 °F 33% 29.98 in - Calm Calm - N/A   Clear